Location: Unspecified
(43.3830°N, 0.0000°E)
Time: 00:27:15
(UTC+00:00)

Vanguard 2 - Pass Details

Date: 24 June 2019
Orbit: 553 x 2938 km, 32.9° (Epoch: 22 July)

Event Time Altitude Azimuth Distance (km) Brightness Sun altitude
Rises 10:33:52 0° 258° (WSW) 3,516 10.8 63.0°
Reaches altitude 10° 10:36:11 10° 250° (WSW) 2,805 10.4 63.3°
Maximum altitude 10:42:31 38° 184° (S) 2,010 10.6 64.1°
Drops below altitude 10° 10:52:30 10° 123° (ESE) 4,440 11.9 65.4°
Sets 10:57:13 0° 117° (ESE) 5,834 12.3 65.9°
